Location: Coopersdale
(40.3556°N, 78.9372°W)
Time: 19:07:40
(UTC+00:00)

Transit 4A - Pass Details

Date: 26 January 2021
Orbit: 866 x 978 km, 66.8° (Epoch: 26 February)

Event Time Altitude Azimuth Distance (km) Brightness Sun altitude
Rises 09:46:15 0° 322° (NW) 3,603 - -31.2°
Reaches altitude 10° 09:49:01 10° 314° (NW) 2,637 - -30.7°
Maximum altitude 09:54:28 35° 251° (WSW) 1,439 - -29.6°
Drops below altitude 10° 09:59:45 10° 188° (S) 2,553 - -28.6°
Exits shadow 09:59:55 - 187° (S) 2,610 10.2 -28.6°
Sets 10:02:24 0° 179° (S) 3,473 10.9 -28.1°
